Wind_Speed
31 32 32 32 32 32 33 33 33 33 33 35 35 35 35 35 35 35 36 37 38 38 39 39 39 39 39 38 38 39 39 39 39 38 39 41 41 41 41 42 42 42 41 41
32 32 32 32 32 32 33 34 33 33 34 35 35 36 35 35 36 36 36 37 38 38 39 40 40 41 40 40 40 40 40 40 40 40 40 40 42 42 42 42 43 43 43 43
31 31 31 32 33 33 33 33 33 34 34 36 36 36 35 35 36 36 37 37 38 39 39 40 41 41 41 41 41 41 41 41 41 42 42 42 42 43 43 43 44 44 45 44
31 31 32 32 32 33 33 33 34 34 35 36 37 38 35 35 36 36 36 37 38 39 40 41 41 42 42 42 42 42 42 43 43 42 43 43 43 43 43 44 45 45 46 45
31 31 31 32 32 32 33 33 33 34 35 36 36 39 37 36 36 36 37 37 38 39 40 41 42 42 43 43 43 43 43 44 43 43 43 43 44 44 45 45 46 46 46 46
32 32 32 31 32 32 32 32 33 34 35 36 36 38 38 37 36 35 36 37 38 39 40 41 42 43 43 44 44 44 44 44 44 44 45 45 45 45 46 46 47 48 48 48
32 32 33 32 32 32 32 33 34 35 36 37 37 38 38 37 36 36 36 37 38 39 40 41 42 42 43 44 44 45 45 45 46 46 46 46 46 46 47 48 48 48 49 49
30 31 32 32 33 33 33 33 34 36 37 38 37 38 36 37 36 36 36 37 38 39 40 41 42 42 43 44 45 45 45 46 46 47 47 47 47 48 48 49 49 49 49 50
30 30 30 31 32 32 32 33 34 36 38 38 38 38 36 37 37 37 37 37 38 39 39 41 42 42 43 43 44 45 45 46 47 47 48 48 49 49 50 50 51 51 50 50
30 31 30 31 31 32 32 32 33 34 36 38 39 38 36 36 37 37 37 37 37 38 38 39 41 41 42 43 44 44 45 46 47 48 48 49 49 50 51 51 52 52 52 52
31 32 31 31 31 32 32 32 33 34 36 37 39 38 36 36 37 37 37 36 36 36 37 38 40 41 41 41 42 43 44 45 46 46 47 47 48 50 50 51 52 53 53 53
29 31 32 31 31 32 32 33 33 34 35 37 39 38 35 36 37 37 36 36 36 36 36 37 38 39 40 40 41 42 43 44 45 45 46 46 47 47 48 49 50 52 53 54
29 30 31 32 32 32 32 33 33 34 35 36 37 36 36 36 36 37 37 36 36 36 36 36 37 38 39 40 41 41 41 42 43 43 44 44 44 46 47 48 48 49 51 52
30 30 31 32 32 32 32 33 33 34 35 35 35 35 35 36 37 37 37 36 36 36 36 36 37 38 38 39 40 41 41 41 41 42 43 44 45 45 47 48 48 48 49 49
32 32 32 32 33 33 34 34 35 35 35 36 36 36 35 36 37 37 37 36 36 36 36 36 37 38 38 39 39 40 41 42 42 42 43 44 45 46 47 47 48 48 49 49
32 33 33 33 34 34 34 34 35 35 36 36 36 36 36 37 37 37 37 36 36 36 36 36 36 37 38 39 39 40 41 41 42 42 43 43 44 45 46 47 47 47 48 49
33 34 34 33 34 35 36 34 34 35 35 35 35 34 35 36 36 36 36 37 37 36 35 35 36 36 37 38 38 39 40 41 42 42 43 44 44 45 46 46 46 47 48 48
34 34 35 35 35 37 36 34 34 35 34 35 35 35 35 35 35 36 35 35 35 36 36 36 36 36 37 38 38 39 40 41 41 42 43 43 44 45 46 46 46 47 48 48
34 35 36 36 36 37 35 34 34 34 34 34 35 35 35 35 36 35 35 35 35 35 36 37 38 38 37 38 38 39 40 40 41 42 43 43 43 44 45 45 46 47 48 48
33 34 35 36 37 37 34 33 33 34 34 33 34 35 35 35 35 34 35 35 36 36 36 36 37 38 38 39 39 40 41 41 42 43 43 43 43 44 44 45 45 46 47 48
33 34 35 35 36 36 34 34 33 34 34 33 33 34 35 35 36 36 36 36 37 37 37 38 38 38 39 39 39 40 41 41 42 42 43 43 44 44 44 44 45 45 46 46
33 34 35 35 36 35 34 34 34 34 34 34 34 34 35 36 36 37 37 37 37 37 37 38 39 39 39 39 39 39 40 40 41 41 41 42 43 43 43 44 44 44 44 45
34 34 35 35 35 36 36 36 36 36 35 35 35 35 36 36 36 37 36 36 37 37 37 37 37 38 37 37 38 38 38 38 38 38 38 39 40 41 41 41 42 42 43 43
34 34 35 34 34 35 36 36 37 37 37 36 36 36 36 36 36 36 35 35 35 36 36 36 37 37 36 36 36 36 37 37 37 37 37 37 38 39 39 39 40 41 41 41
34 34 34 34 34 35 35 35 36 36 36 36 36 36 36 36 36 36 35 35 34 35 35 35 35 35 35 35 35 35 35 35 35 35 36 36 37 37 36 36 37 38 39 40
33 34 34 34 34 34 34 34 35 35 35 35 35 35 35 35 35 36 36 36 35 35 35 35 34 34 34 34 34 34 34 34 34 34 34 35 35 35 36 36 36 37 37 39
Wind_Direction
268 268 269 272 273 274 274 273 273 272 271 269 268 267 265 264 262 261 260 259 257 257 257 256 255 254 254 254 254 254 254 253 253 254 254 253 252 251 251 251 253 255 256 257
270 270 271 273 273 274 273 274 274 273 272 271 270 268 267 265 264 263 261 260 258 257 257 257 257 255 255 255 255 254 254 254 254 253 254 254 253 252 252 252 254 255 255 255
272 272 272 273 274 275 275 275 275 275 275 273 272 269 268 266 266 264 263 262 260 258 258 258 257 256 255 256 255 255 255 254 254 254 253 253 254 253 252 252 253 254 255 255
273 272 272 273 275 276 276 276 276 276 276 275 274 273 269 268 267 266 265 264 262 259 258 258 257 256 255 255 256 256 256 256 255 254 253 253 253 253 253 254 254 254 255 255
274 274 273 274 276 278 278 277 278 278 278 277 276 275 272 271 270 268 267 266 264 261 259 258 258 257 256 256 256 257 256 256 255 254 254 254 253 253 253 254 254 255 255 255
274 274 274 274 276 277 278 278 278 279 279 277 277 276 274 273 272 270 269 268 266 264 261 259 258 258 256 257 257 257 257 256 255 255 255 255 254 253 253 254 255 255 255 256
274 274 273 273 275 275 277 277 279 280 280 279 279 278 277 276 275 273 271 270 268 266 263 261 260 259 258 258 258 257 257 257 256 256 256 255 255 254 254 254 254 255 255 255
277 275 275 274 275 277 278 278 279 281 281 281 280 280 280 279 278 277 275 272 270 267 264 263 261 260 259 258 258 257 257 257 256 256 256 256 256 255 255 255 254 255 256 256
278 276 275 276 278 278 279 278 280 281 281 282 282 282 282 282 280 280 278 276 273 269 266 264 262 261 260 259 258 258 258 257 256 256 256 257 256 256 256 256 255 255 255 256
278 277 276 277 277 278 280 281 281 281 283 284 283 283 284 283 282 281 280 279 276 272 268 265 263 261 261 260 259 258 258 258 257 256 255 256 257 256 256 256 256 255 255 255
279 278 277 277 278 279 280 281 280 281 282 284 285 285 286 284 284 283 282 280 277 274 270 266 264 263 262 261 261 260 259 259 258 257 257 257 257 256 256 256 256 256 256 255
280 279 277 277 279 279 279 280 280 282 283 283 284 285 286 286 285 285 283 282 278 275 272 269 266 265 265 263 262 262 261 260 260 259 259 259 259 258 257 257 257 258 258 257
281 280 279 279 279 280 280 280 281 282 284 285 285 286 286 286 286 286 284 282 280 277 274 272 270 268 267 266 264 262 262 261 261 261 261 260 260 260 259 258 258 258 258 258
281 280 281 281 282 282 282 281 281 281 282 284 286 286 286 286 286 285 285 283 281 279 277 274 272 270 269 267 265 263 263 264 264 263 263 263 262 261 260 259 259 259 259 259
283 283 283 282 281 281 282 282 281 280 281 282 284 284 286 286 286 286 285 284 283 281 278 276 272 270 268 268 266 264 264 265 266 266 265 265 264 263 262 261 261 261 261 261
283 283 283 282 281 281 280 282 282 282 281 282 282 282 284 284 285 284 284 283 283 281 280 278 274 271 269 268 267 266 266 266 266 266 266 266 265 265 264 263 263 262 263 262
285 284 283 281 281 281 281 283 283 282 281 281 282 283 284 284 284 283 283 282 282 281 280 279 276 273 270 269 268 267 266 266 267 266 266 266 265 265 265 265 265 264 264 264
287 286 284 283 282 282 283 284 285 284 282 281 282 283 283 284 284 283 283 283 282 281 280 278 277 275 272 269 267 268 268 267 267 267 267 267 266 266 265 266 267 267 267 267
288 287 286 286 286 286 286 286 285 284 283 283 283 282 282 283 283 283 283 283 282 282 281 280 278 276 273 271 269 269 269 268 268 268 268 268 268 268 268 268 268 268 268 268
289 288 287 287 287 288 289 287 285 285 285 284 282 282 282 283 283 283 283 282 283 283 283 281 279 277 275 273 271 271 270 270 269 269 268 269 269 270 270 269 269 269 269 269
289 288 288 287 287 289 289 288 287 286 287 286 284 283 283 283 283 284 283 282 283 283 283 282 281 279 276 274 273 272 271 271 271 270 270 270 271 271 271 271 270 270 271 271
290 289 289 288 287 288 287 286 286 286 286 286 286 286 285 285 285 285 284 283 282 283 283 283 281 280 278 275 274 273 272 272 271 271 271 271 272 273 273 272 271 272 272 271
291 290 289 289 289 288 287 285 284 284 284 284 285 286 286 286 285 285 285 284 284 283 283 283 282 280 278 276 275 274 273 273 272 272 272 273 273 273 273 272 271 272 273 273
291 290 289 289 289 287 286 285 283 282 283 283 284 284 284 285 286 286 285 285 284 283 284 284 283 281 280 278 276 275 273 272 273 273 273 274 275 274 273 273 272 272 273 273
292 291 290 289 289 287 286 286 285 283 282 283 284 285 285 285 285 286 286 286 285 285 285 285 284 282 281 279 277 275 274 273 273 274 274 275 276 275 274 274 274 274 275 275
291 291 290 289 289 289 290 288 286 285 284 284 284 284 285 286 287 287 286 285 285 285 285 285 285 284 283 280 277 275 274 274 274 274 276 276 277 276 276 276 276 276 277 277
Height
5688 5689 5688 5688 5687 5687 5686 5685 5685 5685 5684 5683 5684 5684 5685 5686 5686 5687 5688 5689 5691 5692 5693 5694 5695 5696 5698 5700 5701 5703 5704 5706 5708 5709 5711 5713 5715 5717 5719 5722 5724 5726 5728 5730
5681 5680 5681 5680 5679 5678 5677 5677 5677 5676 5675 5674 5675 5675 5676 5677 5677 5678 5679 5680 5681 5682 5683 5685 5686 5687 5689 5690 5692 5693 5695 5696 5698 5700 5701 5703 5705 5707 5709 5711 5714 5716 5718 5720
5673 5674 5673 5672 5671 5670 5669 5669 5669 5668 5667 5665 5665 5666 5667 5668 5668 5668 5669 5670 5671 5673 5674 5675 5676 5677 5679 5680 5682 5683 5685 5686 5688 5689 5691 5692 5694 5696 5699 5701 5703 5705 5708 5710
5665 5665 5665 5664 5663 5662 5662 5661 5660 5659 5658 5657 5656 5655 5658 5659 5659 5660 5660 5661 5661 5662 5663 5664 5666 5667 5668 5670 5672 5673 5675 5676 5677 5679 5680 5682 5684 5686 5688 5691 5693 5695 5697 5699
5657 5658 5657 5656 5656 5654 5654 5653 5652 5650 5649 5648 5647 5645 5648 5649 5650 5651 5651 5651 5651 5652 5653 5654 5655 5657 5658 5659 5661 5662 5664 5665 5667 5668 5670 5671 5673 5675 5678 5680 5682 5684 5686 5688
5650 5649 5649 5648 5648 5647 5645 5645 5643 5641 5640 5639 5639 5637 5638 5640 5641 5642 5641 5641 5641 5642 5642 5643 5644 5646 5647 5648 5649 5651 5652 5654 5656 5657 5659 5660 5662 5664 5666 5668 5670 5672 5674 5676
5642 5641 5640 5640 5639 5639 5638 5637 5635 5632 5630 5630 5631 5628 5630 5631 5632 5632 5632 5631 5631 5631 5632 5632 5633 5635 5636 5637 5638 5639 5641 5642 5644 5645 5647 5649 5651 5652 5654 5657 5658 5660 5662 5664
5633 5633 5633 5632 5631 5631 5630 5628 5627 5624 5622 5622 5621 5620 5623 5623 5622 5621 5621 5620 5620 5620 5620 5621 5622 5623 5624 5625 5626 5628 5629 5630 5632 5633 5635 5637 5639 5640 5642 5644 5646 5648 5650 5651
5625 5625 5625 5624 5623 5623 5621 5620 5619 5617 5613 5612 5612 5612 5614 5613 5612 5611 5610 5609 5609 5608 5608 5609 5610 5611 5612 5613 5614 5616 5617 5618 5620 5621 5623 5624 5626 5628 5629 5631 5633 5635 5636 5638
5617 5617 5617 5616 5616 5614 5613 5612 5610 5607 5604 5603 5603 5603 5605 5603 5602 5601 5600 5599 5598 5598 5598 5598 5599 5599 5600 5601 5602 5603 5604 5606 5607 5609 5610 5611 5613 5615 5616 5618 5619 5621 5623 5625
5610 5609 5609 5608 5607 5606 5605 5604 5601 5599 5597 5595 5593 5597 5596 5594 5592 5591 5590 5589 5588 5587 5587 5587 5587 5588 5589 5590 5590 5591 5592 5593 5595 5596 5597 5598 5599 5601 5602 5604 5605 5607 5609 5611
5602 5601 5600 5600 5599 5597 5596 5595 5593 5592 5589 5586 5584 5589 5587 5585 5582 5581 5580 5579 5578 5577 5577 5577 5577 5577 5578 5578 5579 5579 5580 5581 5582 5583 5584 5585 5587 5588 5589 5590 5592 5593 5595 5596
5594 5593 5592 5591 5592 5590 5587 5586 5584 5582 5580 5578 5576 5580 5577 5575 5573 5571 5570 5569 5567 5567 5566 5566 5566 5566 5567 5567 5567 5568 5569 5570 5570 5571 5572 5573 5574 5575 5576 5577 5578 5580 5581 5582
5586 5585 5584 5583 5581 5580 5578 5578 5576 5573 5571 5569 5569 5570 5569 5566 5564 5562 5560 5559 5558 5557 5556 5556 5555 5555 5555 5556 5556 5557 5558 5558 5559 5560 5560 5561 5562 5563 5563 5564 5565 5566 5567 5568
5578 5577 5575 5574 5572 5571 5570 5569 5567 5564 5563 5561 5561 5560 5560 5557 5554 5552 5551 5549 5548 5547 5546 5545 5545 5544 5544 5545 5545 5546 5546 5547 5548 5548 5549 5549 5549 5550 5550 5551 5552 5553 5554 5555
5569 5568 5567 5565 5563 5561 5560 5560 5558 5556 5554 5552 5551 5551 5550 5547 5544 5542 5541 5539 5538 5537 5536 5535 5534 5533 5533 5534 5534 5534 5535 5535 5536 5537 5537 5537 5537 5538 5538 5538 5539 5540 5540 5541
5561 5559 5557 5556 5554 5552 5551 5552 5549 5547 5545 5544 5542 5543 5539 5537 5534 5532 5531 5529 5528 5527 5525 5524 5523 5523 5522 5522 5522 5523 5523 5523 5524 5524 5525 5525 5525 5525 5525 5526 5526 5527 5527 5527
5553 5550 5547 5546 5545 5542 5545 5543 5540 5537 5536 5534 5532 5531 5529 5527 5525 5523 5521 5519 5518 5516 5515 5514 5513 5512 5511 5511 5511 5511 5511 5512 5512 5512 5512 5512 5512 5513 5513 5513 5513 5513 5513 5514
5544 5541 5538 5536 5533 5532 5535 5533 5530 5527 5527 5525 5523 5521 5519 5517 5515 5514 5511 5509 5508 5506 5505 5504 5503 5502 5501 5500 5500 5500 5499 5500 5500 5500 5499 5499 5500 5500 5500 5500 5499 5499 5500 5500
5535 5532 5530 5527 5524 5523 5526 5523 5519 5518 5517 5516 5513 5511 5509 5507 5506 5505 5502 5499 5498 5496 5495 5493 5492 5490 5489 5489 5488 5488 5488 5488 5487 5487 5487 5487 5487 5487 5487 5486 5486 5486 5486 5485
5526 5523 5521 5518 5514 5514 5515 5512 5510 5509 5509 5505 5503 5501 5499 5497 5496 5494 5491 5489 5487 5485 5484 5482 5481 5479 5478 5477 5476 5476 5476 5475 5475 5475 5475 5474 5474 5474 5473 5473 5473 5472 5472 5472
5517 5514 5512 5509 5506 5508 5505 5502 5501 5499 5497 5495 5493 5491 5489 5487 5485 5483 5481 5478 5476 5474 5473 5471 5469 5468 5466 5465 5465 5464 5464 5463 5463 5463 5462 5462 5462 5461 5460 5460 5459 5459 5458 5458
5508 5506 5503 5501 5501 5497 5494 5492 5490 5488 5486 5484 5482 5481 5478 5476 5474 5472 5470 5468 5466 5464 5462 5460 5458 5457 5455 5454 5453 5453 5452 5451 5451 5451 5450 5450 5449 5448 5447 5447 5446 5446 5445 5445
5499 5496 5494 5491 5490 5487 5484 5481 5480 5478 5476 5474 5472 5470 5468 5465 5463 5461 5459 5457 5455 5453 5451 5449 5447 5445 5444 5443 5442 5441 5441 5440 5440 5439 5439 5438 5437 5436 5435 5435 5434 5434 5433 5432
5491 5487 5484 5482 5480 5477 5474 5472 5470 5468 5466 5463 5461 5459 5457 5455 5453 5450 5448 5446 5444 5442 5440 5438 5436 5435 5433 5432 5431 5430 5429 5429 5428 5428 5427 5426 5426 5425 5424 5423 5422 5422 5421 5420
5482 5478 5475 5473 5470 5467 5465 5462 5460 5458 5456 5453 5451 5449 5447 5445 5442 5440 5438 5436 5434 5432 5430 5428 5426 5424 5422 5421 5420 5419 5418 5418 5418 5417 5416 5415 5415 5414 5413 5412 5411 5409 5409 5407